Dublin, Ireland

3:47 AM IST on April 23, 2018 (GMT +0100)
Dublin International

Weather History for EIDW - November, 2013

Change the Weather History Date:

Tuesday, November 19, 2013

  Actual Average Record
Temperature  
Mean Temperature 36 °F -  
Max Temperature 41 °F 48 °F 57 °F (2012)
Min Temperature 31 °F 39 °F 30 °F (2004)
Degree Days  
Heating Degree Days 29    
Moisture  
Dew Point 32 °F    
Average Humidity 85    
Maximum Humidity 100    
Minimum Humidity 70    
Precipitation  
Precipitation 0.00 in 0.09 in - ()
Sea Level Pressure  
Sea Level Pressure 30.04 in    
Wind  
Wind Speed 14 mph ()    
Max Wind Speed 23 mph    
Max Gust Speed -    
Visibility 7.2 miles    
Events      
Averages and records for this station are not official NWS values.
T = Trace of Precipitation, MM = Missing Value Source: Averaged Metar Reports

Daily Weather History Graph

Daily Weather History Graph

Search for Another Location

Airport or City:

Astronomy

Nov. 19, 2013 Rise Set
Actual Time 7:57 AM GMT 4:22 PM GMT
Civil Twilight 7:18 AM GMT 5:02 PM GMT
Nautical Twilight 6:34 AM GMT 5:45 PM GMT
Astronomical Twilight 5:53 AM GMT 6:26 PM GMT
Moon 5:59 PM GMT (11/19) 9:28 AM GMT (11/19)
Length of Visible Light 9h 43m
Length of Day
8h 24m
Full, 97% of the Moon is Illuminated
Nov 19
Full
Nov 25
Last Quarter
Dec 3
New
Dec 9
First Quarter
Dec 17
Full

Hourly Weather History & Observations

Time (GMT) Temp. Windchill Dew Point Humidity Pressure Visibility Wind Dir Wind Speed Gust Speed Precip Events Conditions
12:00 AM 34 °F - 32 °F 87% 29.96 in 19 mi West 13.4 mph - -   Scattered Clouds
12:00 AM 33.8 °F 24.3 °F 32.0 °F 93% 29.95 in 6.2 mi West 13.8 mph - N/A   Scattered Clouds
12:30 AM 33.8 °F 25.3 °F 32.0 °F 93% 29.95 in 6.2 mi West 11.5 mph - N/A   Scattered Clouds
1:00 AM 33.8 °F 23.5 °F 32.0 °F 93% 29.95 in 6.2 mi West 16.1 mph - N/A   Mostly Cloudy
1:30 AM 33.8 °F 24.3 °F 32.0 °F 93% 29.95 in 6.2 mi West 13.8 mph - N/A   Scattered Clouds
2:00 AM 33.8 °F 24.3 °F 32.0 °F 93% 29.95 in 6.2 mi West 13.8 mph - N/A   Partly Cloudy
2:30 AM 32.0 °F 22.5 °F 32.0 °F 100% 29.95 in 6.2 mi West 12.7 mph - N/A   Scattered Clouds
3:00 AM 32.0 °F 22.1 °F 30.2 °F 93% 29.95 in 6.2 mi West 13.8 mph - N/A   Partly Cloudy
3:30 AM 32.0 °F 22.1 °F 30.2 °F 93% 29.95 in 6.2 mi West 13.8 mph - N/A   Partly Cloudy
4:00 AM 32.0 °F 22.1 °F 30.2 °F 93% 29.98 in 6.2 mi West 13.8 mph - N/A   Partly Cloudy
4:30 AM 32.0 °F 22.1 °F 30.2 °F 93% 29.98 in 6.2 mi West 13.8 mph - N/A   Partly Cloudy
5:00 AM 32.0 °F 22.1 °F 30.2 °F 93% 29.98 in 6.2 mi West 13.8 mph - N/A   Partly Cloudy
5:30 AM 32.0 °F 20.5 °F 30.2 °F 93% 29.98 in 6.2 mi West 18.4 mph - N/A   Partly Cloudy
6:00 AM 32 °F - 30 °F 91% 30.02 in 19 mi West 15.7 mph - -   Scattered Clouds
6:00 AM 32.0 °F 21.2 °F 30.2 °F 93% 30.01 in 6.2 mi West 16.1 mph - N/A   Partly Cloudy
6:30 AM 32.0 °F 22.5 °F 30.2 °F 93% 30.01 in 6.2 mi WSW 12.7 mph - N/A   Mostly Cloudy
7:00 AM 33.8 °F 25.8 °F 30.2 °F 87% 30.01 in 6.2 mi West 10.4 mph - N/A   Scattered Clouds
7:30 AM 33.8 °F 23.2 °F 30.2 °F 87% 30.01 in 6.2 mi WNW 17.3 mph - N/A   Partly Cloudy
8:00 AM 33.8 °F 22.5 °F 30.2 °F 87% 30.04 in 6.2 mi WNW 19.6 mph - N/A   Partly Cloudy
8:30 AM 33.8 °F 22.8 °F 30.2 °F 87% 30.04 in 6.2 mi WNW 18.4 mph - N/A   Partly Cloudy
9:00 AM 33.8 °F 23.5 °F 32.0 °F 93% 30.06 in 6.2 mi WNW 16.1 mph - N/A   Partly Cloudy
9:30 AM 35.6 °F 25.5 °F 32.0 °F 87% 30.09 in 6.2 mi WNW 17.3 mph - N/A   Partly Cloudy
10:00 AM 35.6 °F 25.5 °F 32.0 °F 87% 30.09 in 6.2 mi WNW 17.3 mph - N/A   Partly Cloudy
10:30 AM 37.4 °F 27.8 °F 32.0 °F 81% 30.09 in 6.2 mi WNW 17.3 mph - N/A   Partly Cloudy
11:00 AM 37.4 °F 28.2 °F 33.8 °F 87% 30.12 in 6.2 mi WNW 16.1 mph - N/A   Partly Cloudy
11:30 AM 37.4 °F 28.2 °F 33.8 °F 87% 30.12 in 6.2 mi WNW 16.1 mph - N/A   Partly Cloudy
12:00 PM 39 °F - 33 °F 70% 30.14 in 19 mi NW 13.4 mph - -   Scattered Clouds
12:00 PM 39.2 °F 31.6 °F 33.8 °F 81% 30.12 in 6.2 mi NW 12.7 mph - N/A   Partly Cloudy
12:30 PM 39.2 °F 31.6 °F 32.0 °F 75% 30.12 in 6.2 mi WNW 12.7 mph - N/A   Partly Cloudy
1:00 PM 39.2 °F 30.8 °F 33.8 °F 81% 30.12 in 6.2 mi WNW 15.0 mph - N/A   Partly Cloudy
1:30 PM 39.2 °F 30.5 °F 33.8 °F 81% 30.12 in 6.2 mi WNW 16.1 mph - N/A   Scattered Clouds
2:00 PM 39.2 °F 30.8 °F 33.8 °F 81% 30.12 in 6.2 mi WNW 15.0 mph - N/A   Scattered Clouds
2:30 PM 39.2 °F 32.0 °F 32.0 °F 75% 30.12 in 6.2 mi West 11.5 mph - N/A   Scattered Clouds
3:00 PM 39.2 °F 31.6 °F 32.0 °F 75% 30.12 in 6.2 mi West 12.7 mph - N/A   Scattered Clouds
3:30 PM 37.4 °F 30.3 °F 32.0 °F 81% 30.12 in 6.2 mi West 10.4 mph - N/A   Scattered Clouds
4:00 PM 37.4 °F 29.3 °F 32.0 °F 81% 30.12 in 6.2 mi West 12.7 mph - N/A   Mostly Cloudy
4:30 PM 37.4 °F 30.3 °F 32.0 °F 81% 30.12 in 6.2 mi West 10.4 mph - N/A   Mostly Cloudy
5:00 PM 37.4 °F 29.8 °F 33.8 °F 87% 30.12 in 6.2 mi West 11.5 mph - N/A   Mostly Cloudy
5:30 PM 37.4 °F 29.8 °F 33.8 °F 87% 30.09 in 6.2 mi WSW 11.5 mph - N/A   Mostly Cloudy
6:00 PM 38 °F - 33 °F 77% 30.12 in 19 mi WSW 15.7 mph - -   Partly Cloudy
6:00 PM 39.2 °F 30.5 °F 33.8 °F 81% 30.09 in 6.2 mi WSW 16.1 mph - N/A   Mostly Cloudy
6:30 PM 39.2 °F 31.2 °F 33.8 °F 81% 30.09 in 6.2 mi WSW 13.8 mph - N/A   Mostly Cloudy
7:00 PM 39.2 °F 30.8 °F 32.0 °F 75% 30.09 in 6.2 mi WSW 15.0 mph - N/A   Mostly Cloudy
7:30 PM 39.2 °F 30.5 °F 32.0 °F 75% 30.09 in 6.2 mi WSW 16.1 mph - N/A   Mostly Cloudy
8:00 PM 39.2 °F 29.8 °F 32.0 °F 75% 30.06 in 6.2 mi WSW 18.4 mph - N/A   Mostly Cloudy
8:30 PM 41.0 °F 31.6 °F 33.8 °F 76% 30.04 in 6.2 mi WSW 20.7 mph - N/A   Mostly Cloudy
9:00 PM 41.0 °F 31.6 °F 33.8 °F 76% 30.01 in 6.2 mi WSW 20.7 mph - N/A   Mostly Cloudy
9:30 PM 41.0 °F 31.6 °F 35.6 °F 81% 30.01 in 6.2 mi WSW 20.7 mph - N/A   Mostly Cloudy
10:00 PM 41.0 °F 31.4 °F 35.6 °F 81% 29.98 in 6.2 mi WSW 21.9 mph - N/A   Mostly Cloudy
10:30 PM 41.0 °F 31.4 °F 35.6 °F 81% 29.98 in 6.2 mi WSW 21.9 mph - N/A   Mostly Cloudy
11:00 PM 41.0 °F 31.1 °F 37.4 °F 87% 29.95 in 6.2 mi WSW 23.0 mph - N/A   Mostly Cloudy
11:30 PM 41.0 °F 31.1 °F 37.4 °F 87% 29.95 in 6.2 mi SW 23.0 mph - N/A   Mostly Cloudy